TimeEDT,TemperatureF,Dew PointF,Humidity,Sea Level PressureIn,VisibilityMPH,Wind Direction,Wind SpeedMPH,Gust SpeedMPH,PrecipitationIn,Events,Conditions,WindDirDegrees,DateUTC
12:29 AM,50.0,48.2,94,29.91,1.8,Calm,Calm,-,N/A,,Clear,0,2012-10-02 04:29:00
12:37 AM,50.0,48.2,94,29.92,3.0,Calm,Calm,-,N/A,,Clear,0,2012-10-02 04:37:00
12:51 AM,50.0,48.9,96,29.92,6.0,Calm,Calm,-,N/A,,Clear,0,2012-10-02 04:51:00
1:51 AM,48.9,48.0,97,29.94,10.0,Calm,Calm,-,N/A,,Clear,0,2012-10-02 05:51:00
2:51 AM,51.8,51.8,100,29.93,10.0,Calm,Calm,-,N/A,,Clear,0,2012-10-02 06:51:00
3:51 AM,50.0,48.9,96,29.95,10.0,Calm,Calm,-,N/A,,Clear,0,2012-10-02 07:51:00
4:51 AM,50.0,48.9,96,29.96,10.0,Calm,Calm,-,N/A,,Clear,0,2012-10-02 08:51:00
5:51 AM,51.1,50.0,96,29.98,10.0,Calm,Calm,-,N/A,,Partly Cloudy,0,2012-10-02 09:51:00
6:51 AM,51.1,50.0,96,29.98,9.0,Calm,Calm,-,N/A,,Clear,0,2012-10-02 10:51:00
7:51 AM,54.0,52.0,93,30.00,10.0,Calm,Calm,-,N/A,,Clear,0,2012-10-02 11:51:00
8:51 AM,57.9,53.1,84,30.03,10.0,Calm,Calm,-,N/A,,Clear,0,2012-10-02 12:51:00
9:51 AM,62.1,53.1,72,30.03,10.0,Calm,Calm,-,N/A,,Clear,0,2012-10-02 13:51:00
10:51 AM,63.0,54.0,72,30.04,10.0,Calm,Calm,-,N/A,,Clear,0,2012-10-02 14:51:00
11:51 AM,66.0,54.0,65,30.03,10.0,WSW,4.6,-,N/A,,Clear,240,2012-10-02 15:51:00
12:51 PM,68.0,52.0,56,30.02,10.0,West,5.8,-,N/A,,Overcast,270,2012-10-02 16:51:00
1:51 PM,66.9,52.0,59,30.01,10.0,West,3.5,-,0.00,Rain,Light Rain,260,2012-10-02 17:51:00
2:51 PM,66.0,54.0,65,30.01,10.0,SW,5.8,-,0.00,,Mostly Cloudy,230,2012-10-02 18:51:00
3:51 PM,64.0,55.9,75,30.00,10.0,South,5.8,-,N/A,,Overcast,170,2012-10-02 19:51:00
4:51 PM,62.1,55.0,78,30.03,10.0,SSW,5.8,-,N/A,,Overcast,200,2012-10-02 20:51:00
5:51 PM,62.1,55.0,78,30.03,10.0,SSW,3.5,-,N/A,,Overcast,200,2012-10-02 21:51:00
6:51 PM,59.0,57.0,93,30.04,3.0,South,3.5,-,0.00,Rain,Light Rain,190,2012-10-02 22:51:00
7:22 PM,59.0,57.2,94,30.05,10.0,SE,3.5,-,0.01,,Overcast,130,2012-10-02 23:22:00
7:51 PM,57.9,57.0,97,30.05,10.0,Calm,Calm,-,0.01,,Overcast,0,2012-10-02 23:51:00
8:51 PM,59.0,57.9,96,30.06,8.0,Calm,Calm,-,N/A,,Overcast,0,2012-10-03 00:51:00
9:51 PM,59.0,57.9,96,30.06,7.0,Calm,Calm,-,N/A,,Overcast,0,2012-10-03 01:51:00
10:51 PM,59.0,57.9,96,30.06,7.0,Calm,Calm,-,N/A,,Overcast,0,2012-10-03 02:51:00
11:51 PM,59.0,57.9,96,30.06,5.0,Calm,Calm,-,0.01,Rain,Light Rain,0,2012-10-03 03:51:00